Location: Unspecified
(48.2082°N, 0.0000°E)
Time: 03:17:52
(UTC+00:00)

A-11 Canister half - Pass Details

Date: 26 June 2019
Orbit: 1514 x 1685 km, 47.2° (Epoch: 22 July)

Event Time Altitude Azimuth Distance (km) Brightness Sun altitude
Rises 07:52:44 0° 195° (SSW) 4,922 11.6 35.3°
Reaches altitude 10° 07:56:35 10° 184° (S) 3,926 11.2 35.9°
Maximum altitude 08:04:22 26° 133° (SE) 2,813 11.5 37.2°
Drops below altitude 10° 08:12:00 10° 81° (E) 3,855 12.3 38.5°
Sets 08:15:43 0° 70° (ENE) 4,817 12.3 39.1°
